Valparaiso, IN

4:51 AM CST on January 20, 2017 (GMT -0600)
Porter County Municipal

Weather History for KVPZ - March, 2014

Change the Weather History Date:

Saturday, March 29, 2014

  Actual Average Record
Temperature  
Mean Temperature 32 °F 43 °F  
Max Temperature 37 °F 52 °F 82 °F (1986)
Min Temperature 26 °F 33 °F 13 °F (1915)
Degree Days  
Heating Degree Days 33 22  
Month to date heating degree days 959 801  
Since 1 July heating degree days 6408 5533  
Cooling Degree Days 0 0  
Month to date cooling degree days 0 0  
Year to date cooling degree days 0 0  
Moisture  
Dew Point 28 °F    
Average Humidity 85    
Maximum Humidity 92    
Minimum Humidity 79    
Precipitation  
Precipitation 0.00 in 0.09 in 0.94 in (1973)
Month to date precipitation 0.79 2.30  
Year to date precipitation 3.42 5.47  
Sea Level Pressure  
Sea Level Pressure 30.19 in    
Wind  
Wind Speed 8 mph (North)    
Max Wind Speed 17 mph    
Max Gust Speed 25 mph    
Visibility 9 miles    
Events      
T = Trace of Precipitation, MM = Missing Value Source: NWS Daily Summary

Daily Weather History Graph

Daily Weather History Graph

Search for Another Location

Airport or City:

Trip Planner

Search our weather history database for the weather conditions in past years. The results will help you decide how hot, cold, wet, or windy it might be!

Date:

Astronomy

Mar. 29, 2014 Rise Set
Actual Time 6:36 AM CDT 7:10 PM CDT
Civil Twilight 6:08 AM CDT 7:37 PM CDT
Nautical Twilight 5:35 AM CDT 8:10 PM CDT
Astronomical Twilight 5:01 AM CDT 8:44 PM CDT
Moon 5:45 AM CDT (3/29) 6:14 PM CDT (3/29)
Length of Visible Light 13h 29m
Length of Day
12h 33m
Waning Crescent, 2% of the Moon is Illuminated
Mar 29
Waning Crescent
Mar 30
New
Apr 7
First Quarter
Apr 15
Full
Apr 22
Last Quarter

Hourly Weather History & Observations

Time (CDT) Temp. Windchill Dew Point Humidity Pressure Visibility Wind Dir Wind Speed Gust Speed Precip Events Conditions
12:53 AM 30.9 °F 27.5 °F 27.0 °F 85% 30.20 in 10.0 mi NNW 3.5 mph - N/A   Clear
1:53 AM 30.0 °F 25.2 °F 27.0 °F 88% 30.18 in 10.0 mi NE 4.6 mph - N/A   Clear
2:53 AM 30.9 °F 25.2 °F 27.0 °F 85% 30.17 in 10.0 mi North 5.8 mph - N/A   Overcast
3:09 AM 30.9 °F 26.2 °F 27.0 °F 85% 30.15 in 9.0 mi NNW 4.6 mph - N/A   Overcast
3:53 AM 30.9 °F 26.2 °F 27.0 °F 85% 30.15 in 9.0 mi NE 4.6 mph - N/A   Overcast
4:53 AM 30.9 °F 25.2 °F 27.0 °F 85% 30.16 in 8.0 mi NNE 5.8 mph - N/A   Overcast
5:53 AM 30.0 °F 24.1 °F 28.0 °F 92% 30.17 in 7.0 mi NNE 5.8 mph - N/A   Overcast
6:30 AM 30.9 °F 25.2 °F 28.0 °F 89% 30.15 in 8.0 mi North 5.8 mph - N/A   Overcast
6:53 AM 30.9 °F 24.3 °F 28.0 °F 89% 30.17 in 9.0 mi NNE 6.9 mph - N/A   Overcast
7:16 AM 30.9 °F 25.2 °F 28.0 °F 89% 30.15 in 7.0 mi NNE 5.8 mph - N/A   Overcast
7:53 AM 32.0 °F 25.6 °F 28.0 °F 85% 30.17 in 7.0 mi NNE 6.9 mph - N/A   Overcast
8:53 AM 33.1 °F 26.1 °F 28.9 °F 85% 30.17 in 7.0 mi North 8.1 mph - N/A   Overcast
9:53 AM 33.1 °F 26.1 °F 30.0 °F 89% 30.19 in 6.0 mi North 8.1 mph 16.1 mph N/A   Overcast
10:10 AM 34.0 °F 27.2 °F 30.0 °F 85% 30.17 in 7.0 mi North 8.1 mph - N/A   Overcast
10:53 AM 35.1 °F 28.6 °F 30.0 °F 82% 30.19 in 7.0 mi North 8.1 mph - N/A   Overcast
11:53 AM 34.0 °F 26.0 °F 30.0 °F 85% 30.20 in 8.0 mi North 10.4 mph - N/A   Overcast
12:26 PM 34.0 °F 26.0 °F 30.0 °F 85% 30.16 in 6.0 mi North 10.4 mph - N/A   Overcast
12:53 PM 35.1 °F 27.9 °F 30.9 °F 85% 30.18 in 7.0 mi North 9.2 mph - N/A   Overcast
1:01 PM 36.0 °F 28.0 °F 30.9 °F 82% 30.15 in 8.0 mi North 11.5 mph - N/A   Overcast
1:11 PM 37.0 °F 29.3 °F 30.9 °F 79% 30.15 in 8.0 mi North 11.5 mph 18.4 mph N/A   Overcast
1:53 PM 37.0 °F 29.8 °F 30.9 °F 79% 30.17 in 8.0 mi North 10.4 mph - N/A   Overcast
2:53 PM 36.0 °F 27.5 °F 30.9 °F 82% 30.16 in 8.0 mi North 12.7 mph 20.7 mph N/A   Overcast
3:53 PM 34.0 °F 24.6 °F 28.9 °F 82% 30.17 in 9.0 mi North 13.8 mph 20.7 mph N/A   Overcast
4:53 PM 34.0 °F 24.6 °F 28.9 °F 82% 30.18 in 10.0 mi North 13.8 mph - N/A   Overcast
5:26 PM 34.0 °F 25.5 °F 28.0 °F 79% 30.17 in 10.0 mi North 11.5 mph 18.4 mph N/A   Overcast
5:53 PM 33.1 °F 24.9 °F 28.0 °F 82% 30.21 in 10.0 mi NNW 10.4 mph - N/A   Overcast
6:00 PM 33.1 °F 24.4 °F 28.0 °F 82% 30.19 in 10.0 mi North 11.5 mph - N/A   Overcast
6:12 PM 33.1 °F 23.0 °F 28.0 °F 82% 30.19 in 10.0 mi NNW 15.0 mph 23.0 mph N/A   Overcast
6:53 PM 32.0 °F 23.0 °F 27.0 °F 82% 30.24 in 10.0 mi NNW 11.5 mph 19.6 mph N/A   Overcast
7:45 PM 30.0 °F 22.4 °F 26.1 °F 85% 30.22 in 10.0 mi North 8.1 mph - N/A   Scattered Clouds
7:53 PM 30.0 °F 22.4 °F 26.1 °F 85% 30.25 in 10.0 mi North 8.1 mph - N/A   Scattered Clouds
8:53 PM 28.9 °F 21.9 °F 26.1 °F 89% 30.25 in 10.0 mi NNW 6.9 mph - N/A   Clear
9:53 PM 28.9 °F 23.9 °F 26.1 °F 89% 30.26 in 10.0 mi North 4.6 mph - N/A   Clear
10:53 PM 28.0 °F - 25.0 °F 88% 30.25 in 10.0 mi Calm Calm - N/A   Clear
11:53 PM 27.0 °F 21.6 °F 24.1 °F 89% 30.27 in 10.0 mi WNW 4.6 mph - N/A   Clear